TimeEDT,TemperatureF,Dew PointF,Humidity,Sea Level PressureIn,VisibilityMPH,Wind Direction,Wind SpeedMPH,Gust SpeedMPH,PrecipitationIn,Events,Conditions,WindDirDegrees,DateUTC
12:52 AM,37.9,28.9,70,30.67,10.0,Calm,Calm,-,N/A,,Clear,0,2013-04-22 04:52:00
1:52 AM,36.0,30.0,79,30.67,10.0,ENE,3.5,-,N/A,,Clear,60,2013-04-22 05:52:00
2:52 AM,35.1,30.0,82,30.67,10.0,Calm,Calm,-,N/A,,Clear,0,2013-04-22 06:52:00
3:52 AM,34.0,28.9,82,30.67,10.0,NNE,3.5,-,N/A,,Clear,30,2013-04-22 07:52:00
4:52 AM,32.0,28.9,88,30.67,10.0,Calm,Calm,-,N/A,,Clear,0,2013-04-22 08:52:00
5:52 AM,30.9,28.9,92,30.69,10.0,North,3.5,-,N/A,,Clear,10,2013-04-22 09:52:00
6:52 AM,32.0,28.9,88,30.70,10.0,Calm,Calm,-,N/A,,Clear,0,2013-04-22 10:52:00
8:52 AM,45.0,25.0,46,30.69,10.0,East,8.1,-,N/A,,Clear,80,2013-04-22 12:52:00
9:52 AM,48.0,23.0,37,30.72,10.0,Variable,6.9,19.6,N/A,,Clear,0,2013-04-22 13:52:00
10:52 AM,50.0,19.9,31,30.69,10.0,ESE,12.7,21.9,N/A,,Clear,120,2013-04-22 14:52:00
11:52 AM,51.1,24.1,35,30.66,10.0,East,8.1,17.3,N/A,,Clear,90,2013-04-22 15:52:00
12:52 PM,53.1,23.0,31,30.66,10.0,ESE,8.1,21.9,N/A,,Clear,110,2013-04-22 16:52:00
1:52 PM,54.0,21.9,29,30.62,10.0,East,13.8,25.3,N/A,,Clear,90,2013-04-22 17:52:00
2:52 PM,54.0,21.9,29,30.60,10.0,ENE,16.1,21.9,N/A,,Clear,70,2013-04-22 18:52:00
3:52 PM,55.0,24.1,30,30.59,10.0,ENE,18.4,28.8,N/A,,Clear,70,2013-04-22 19:52:00
4:52 PM,53.1,23.0,31,30.58,10.0,ENE,13.8,21.9,N/A,,Clear,70,2013-04-22 20:52:00
5:52 PM,52.0,28.9,41,30.58,10.0,East,9.2,18.4,N/A,,Mostly Cloudy,100,2013-04-22 21:52:00
6:52 PM,48.9,30.0,48,30.58,10.0,ENE,13.8,-,N/A,,Overcast,70,2013-04-22 22:52:00
7:52 PM,46.9,30.0,52,30.58,10.0,East,13.8,19.6,N/A,,Partly Cloudy,80,2013-04-22 23:52:00
8:52 PM,45.0,30.0,56,30.58,10.0,ENE,10.4,-,N/A,,Clear,70,2013-04-23 00:52:00
9:52 PM,43.0,28.9,58,30.58,10.0,ENE,8.1,-,N/A,,Clear,70,2013-04-23 01:52:00
10:52 PM,41.0,28.9,62,30.58,10.0,ENE,9.2,-,N/A,,Clear,70,2013-04-23 02:52:00
11:52 PM,39.9,28.9,65,30.57,10.0,ENE,8.1,-,N/A,,Partly Cloudy,60,2013-04-23 03:52:00